User: anonymous   Login
Location: Unspecified
(0.0000°N, 0.0000°E)
Time: 16:04:21
(UTC+00:00)
Language:

NOSS 3-4 (A) - Orbit

View from above orbital plane
View from above orbital plane
View from above satellite
View from above satellite

Ground track
Ground track

The orbit data is extracted from the following two-line orbital elements,

1 31701U 07027A   18260.15295273 0.00000000  00000-0  00000-0 0    02
2 31701  63.4031 358.2221 0230000  22.1747 337.8253 13.40756472    02
Epoch (UTC): 17 September 2018 03:40:15
Eccentricity: 0.0230000
inclination: 63.4031°
perigee height: 934 km
apogee height: 1278 km
right ascension of ascending node: 358.2221°
argument of perigee: 22.1747°
revolutions per day: 13.40756472
mean anomaly at epoch: 337.8253°
orbit number at epoch: 0

The dashed part of the orbit path shows where the satellite is in the earth's shadow,  

DLR